Location: Cruquius
(52.3348°N, 4.6319°E)
Time: 20:31:58
(UTC+00:00)

Cosmos 1544 - Pass Details

Date: 12 May 2021
Orbit: 471 x 487 km, 82.5° (Epoch: 20 June)

Event Time Altitude Azimuth Distance (km) Brightness Sun altitude
Rises 21:03:36 0° 355° (N) 2,540 7.8 -11.8°
Reaches altitude 10° 21:05:49 10° 4° (N) 1,658 6.5 -12.0°
Maximum altitude 21:09:11 36° 73° (ENE) 776 3.9 -12.3°
Enters shadow 21:11:11 20° 129° (SE) 1,165 4.4 -12.5°
